loading
DOY 173 | 2024-06-21T05:19:14Z

THOR AGENA D R/B, 733

Orbit data source: Space-Track

THOR AGENA D R/B, 733 is space debris in LEO originally from a launch on Sun, 19 Jan 1964 UTC launched from the Air Force Western Test Range (AFWTR). Debris objects in space refer to the collection of defunct objects orbiting the Earth. Examples of debris include non-operational satellites, rocket bodies, and fragments generated from explosions, collisions, or faulty payload assembly.

Loading next visibility...
Loading greatness...
THOR AGENA D R/B details
NORAD ID733
COSPAR ID
1964-002A
Orbit
LEO
Last TLE update1 day ago
Origin
Flag of USUSAF SSD (US)
ManufacturerLMSC
BusAgena D
MotorUnknown
Mass600 kg wet, 600 kg dry
Launch date (UTC)
1964-01-19 (60 years ago)
Launch vehicleUnknown
Launch site
Air Force Western Test Range (AFWTR)
Object type
Payload
Rocket body
Debris
Radar Cross Section4.7 m², Large (>1 m²)
Predictive object data (real-time)
Latitude-72.52465°
Longitude54.35547°
Altitude787.292 km
Speed7.47 km/s
Apparent Right ascension02h 38m 48s
Apparent Declination-70° 42' 49"
Sunlit
Object is in full shadow
Predictive observer data (real-time)
Local Sidereal Time16:18:22
Azimuth165.346° S
Elevation-56.662°
Doppler factor1
Orbital elements
Apogee801.181 km
Perigee755.039 km
Semi-major axis7,156.247 km
Eccentricity0.0032239
Inclination99.0741°
RAAN141.5179°
Arg. of periapsis286.8435°
True anomaly73.27476°
Mean anomaly72.9212°
Mean motion3.58522 °/min
BSTAR0.0001222
Period100.41 mins
Definitive object data (Epoch: 2024-06-19T21:58:26.51Z)
Latitude-0.00008°
Longitude-96.70767°
Altitude777.16 km
Speed7.469 km/s
True Right ascension09h 26m 04s
True Declination0° 00' 00"
Sunlit
Object was in daylight at TLE epoch
TLE from 1 day ago
0 THOR AGENA D R/B
1 00733U 64002A   24171.91558461  .00000289  00000-0  12220-3 0  9998
2 00733  99.0741 141.5179 0032239 286.8435  72.9212 14.33231098148345
Epoch: 2024-06-19T21:58Z
No data available
Other satellites on launch #2 in the year 1964 (1964-01-19 UTC)

THOR AGENA D R/B Visibility forecast

Observer location: 39.9160978°, -105.1181434, 0m alt.

THOR AGENA D R/B is not visible in the next 10 days
Span
Click to sort rows by Start time (UTC) header in descending order
Start Az.
Max El. time (UTC)
Max El. Az.
Max El.
End time (UTC)
End Az.